EW7604 Weather Reports


time (UTC)temp
C
wind
direction
speed
KPH
gust
KPH
rain 1hr
cm
rain 24hr
cm
rain mn
cm
humidity
%
barometer
mb
20260505153054 11 190 0.0 4.8 0.00 0.00 0.00 88 1015.6
20260505151554 11 190 0.0 3.2 0.00 0.00 0.00 88 1015.6
20260505124530 10 203 0.0 1.6 0.00 0.00 0.00 91 1014.5
20260505123031 10 204 0.0 1.6 0.00 0.00 0.00 91 1014.5
20260505121534 10 203 0.0 0.0 0.00 0.00 0.00 91 1014.5
20260505120028 10 203 0.0 1.6 0.00 0.00 0.00 91 1014.4
20260505114526 10 204 0.0 1.6 0.00 0.00 0.00 91 1014.4
20260505113025 10 203 0.0 3.2 0.00 0.00 0.00 91 1014.3
20260505111524 10 232 0.0 4.8 0.00 0.00 0.00 91 1014.3
20260505101517 10 167 1.6 3.2 0.00 0.00 0.00 92 1013.9
20260505100017 10 167 0.0 4.8 0.00 0.00 0.00 92 1013.8
20260505094511 10 210 0.0 3.2 0.00 0.00 0.00 93 1013.9
20260505093011 10 258 0.0 6.4 0.00 0.00 0.00 93 1013.7
20260505091510 9 254 0.0 4.8 0.00 0.00 0.00 92 1013.7
20260505090017 9 255 0.0 4.8 0.00 0.00 0.00 92 1013.6
20260505084508 9 171 0.0 3.2 0.00 0.00 0.00 92 1013.6
20260505083006 9 170 0.0 1.6 0.00 0.00 0.00 92 1013.6
20260505081506 9 170 0.0 1.6 0.00 0.00 0.00 91 1013.5
20260505080011 10 170 0.0 3.2 0.00 0.00 0.00 91 1013.3
20260505074502 10 169 0.0 6.4 0.00 0.00 0.00 91 1013.3
20260505073105 10 161 0.0 3.2 0.00 0.00 0.00 91 1013.2
20260505071557 10 161 1.6 8.0 0.00 0.00 0.00 90 1013.0
20260505070055 10 147 0.0 4.8 0.00 0.00 0.00 90 1012.8
20260505064555 10 157 1.6 8.0 0.00 0.00 0.00 90 1012.8
20260505063053 10 157 0.0 4.8 0.00 0.00 0.00 89 1012.7
20260505061553 10 159 0.0 3.2 0.00 0.00 0.00 89 1012.7
20260505060051 11 261 0.0 11.3 0.00 0.00 0.00 88 1012.6
20260505054556 11 261 0.0 3.2 0.00 0.00 0.00 88 1012.7
20260505053050 11 259 0.0 3.2 0.00 0.00 0.00 87 1012.6
20260505051550 11 235 0.0 4.8 0.00 0.00 0.00 86 1012.6
20260505041549 12 306 3.2 14.5 0.00 0.00 0.00 84 1011.6
20260505040047 12 271 4.8 19.3 0.00 0.00 0.00 83 1011.3
20260505034547 13 296 6.4 20.9 0.00 0.00 0.00 81 1011.1
20260505033045 13 240 4.8 16.1 0.00 0.00 0.00 79 1011.0
20260505031554 14 225 3.2 14.5 0.00 0.00 0.00 77 1010.8
20260505030046 15 342 8.0 20.9 0.00 0.00 0.00 75 1010.6
20260505024549 16 279 3.2 16.1 0.00 0.00 0.00 73 1010.4
20260505023046 16 338 3.2 9.7 0.00 0.00 0.00 71 1010.3
20260505021541 17 303 4.8 19.3 0.00 0.00 0.00 70 1010.4
20260505020040 18 250 3.2 6.4 0.00 0.00 0.00 68 1010.4
20260505014559 19 241 1.6 12.9 0.00 0.00 0.00 67 1010.4
20260505013038 20 259 0.0 8.0 0.00 0.00 0.00 66 1010.4
20260505011548 21 243 1.6 11.3 0.00 0.00 0.00 65 1010.5
20260505010037 21 185 0.0 9.7 0.00 0.00 0.00 66 1010.6
20260505004536 21 202 1.6 12.9 0.00 0.00 0.00 66 1010.5
20260505003036 21 184 1.6 8.0 0.00 0.00 0.00 66 1010.5
20260505001541 22 259 3.2 9.7 0.00 0.00 0.00 63 1010.5
20260505000033 22 212 1.6 6.4 0.00 0.00 0.00 63 1010.6
20260504234531 21 144 3.2 11.3 0.00 0.00 0.00 66 1010.6
20260504233028 21 129 1.6 8.0 0.00 0.00 0.00 66 1010.8
20260504231527 21 143 3.2 12.9 0.00 0.00 0.00 68 1010.8
20260504230027 21 152 4.8 14.5 0.00 0.00 0.00 67 1011.0
20260504224534 21 184 3.2 11.3 0.00 0.00 0.00 67 1011.0
20260504223024 21 152 3.2 9.7 0.00 0.00 0.00 69 1011.2
20260504221524 20 169 3.2 8.0 0.00 0.00 0.00 69 1011.3
20260504220022 21 131 0.0 11.3 0.00 0.00 0.00 66 1011.5
20260504214525 20 155 4.8 11.3 0.00 0.00 0.00 69 1011.7
20260504213021 20 194 3.2 11.3 0.00 0.00 0.00 72 1011.7
20260504211517 19 167 3.2 14.5 0.00 0.00 0.00 72 1011.9
20260504210027 19 121 3.2 11.3 0.00 0.00 0.00 74 1012.0
20260504204527 19 254 3.2 12.9 0.00 0.00 0.00 71 1012.3
20260504203015 18 186 1.6 9.7 0.00 0.00 0.00 72 1012.4
20260504201513 18 161 1.6 11.3 0.00 0.00 0.00 70 1012.4
20260504200012 18 232 1.6 11.3 0.00 0.00 0.00 74 1012.4
20260504194514 17 157 3.2 9.7 0.00 0.00 0.00 75 1012.5
20260504193010 17 176 1.6 14.5 0.00 0.00 0.00 75 1012.5
20260504191510 17 155 3.2 11.3 0.00 0.00 0.00 74 1012.6
20260504190009 16 159 3.2 11.3 0.00 0.00 0.00 76 1012.7
20260504184509 16 158 3.2 9.7 0.00 0.00 0.00 76 1012.9
20260504183009 16 158 1.6 9.7 0.00 0.00 0.00 77 1012.8
20260504181507 15 146 3.2 12.9 0.00 0.00 0.00 78 1012.8
20260504180006 15 77 1.6 8.0 0.00 0.00 0.00 81 1012.7
20260504174507 14 148 4.8 11.3 0.00 0.00 0.00 82 1012.8
20260504173003 14 142 4.8 11.3 0.00 0.00 0.00 83 1012.7
20260504171502 13 146 3.2 14.5 0.00 0.00 0.00 84 1012.7
20260504160109 12 146 1.6 14.5 0.00 0.00 0.00 86 1012.6